Location: Altenst�hlen
(53.5567°N, 8.9425°E)
Time: 00:52:30
(UTC+00:00)

STARLINK-38 - Pass Details

Date: 23 October 2019
Orbit: 548 x 551 km, 53.0° (Epoch: 11 November)

Event Time Altitude Azimuth Distance (km) Brightness Sun altitude
Rises 16:47:59 0° 266° (W) 2,716 9.7 -6.2°
Reaches altitude 10° 16:50:13 10° 265° (W) 1,823 8.1 -6.5°
Maximum altitude 16:54:22 85° 179° (S) 557 3.7 -7.1°
Drops below altitude 10° 16:58:31 10° 90° (E) 1,825 5.6 -7.7°
Enters shadow 16:58:35 10° 90° (E) 1,855 5.6 -7.7°
